CUSAT 2 & FALCON 9 R/B (39271 NORAD) Tracking and Keplerian Element Data

This shows tracking and keplerian element data for the satellite.

Feedback or suggestion? Click here.




ElementValue
Catalog39271
NameCUSAT 2 & FALCON 9 R/B
Epoch Orbit28468
Epoch Day77.44441246
Epoch Year2019
RAAN37.0306
Inclination80.9686
Eccentricity0.0606299
Argument of Perigee100.4277
Mean Anonmoly266.5789
Mean Motion14.43959705
Decay Rate4.765E-05
L11 39271U 13055G 19077.44441246 .00004765 00000-0 11565-3 0 9992
L22 39271 80.9686 37.0306 0606299 100.4277 266.5789 14.43959705284681

Live tracking and technical data element details for CUSAT 2 & FALCON 9 R/B (NORAD 39271). CUSAT 2 & FALCON 9 R/B can be tracked NOW for your location showing map with azimuth and elevation plus other details from your city location.

Track the satellite on the map from your city or location and see movement details for azimuth, elevation, latitude, longitude, range, height, and movement on the map or in text.







IsCatalogInMostPopularTable: catalog: 39271, numindb: 233
Update: records affected: 1



GetName: 39271 CUSAT 2 & FALCON 9 R/B

Hit Count: updated at: Wed, 20 Mar 2019 05:47:26 GMT